* Astronomy

Members Login
Username 
 
Password 
    Remember Me  
Post Info TOPIC: SL-23 debris re-entry


L

Posts: 131433
Date:
RE: SL-23 debris re-entry
Permalink  
 


Update
 The SL-23 rocket debris re-entered the Earths atmosphere on the 8th August, 2011 @ 18:58 GMT ± 1 minute.

Inclination: 51.39°
Revolution Number:   309
Predicted  Location:   9°N, 351°E



__________________


L

Posts: 131433
Date:
Permalink  
 

Update
 The SL-23 rocket debris re-entered the Earths atmosphere on the 8th August, 2011 @ 18:41 GMT ± 3 hours.

SL-23 RB
1 37758U 11037D   11220.54719648  .10501301  12222-4  13655-3 0   686
2 37758 051.3822 226.8382 0023318 163.6104 196.7986 16.47142596  3062

Inclination: 51.39°
Revolution Number:   308
Predicted  Location:   48.6°S, 284.4°E



__________________


L

Posts: 131433
Date:
Permalink  
 

Update
 The SL-23 rocket debris is predicted to re-enter the Earths atmosphere on the 8th August, 2011 @ 17:55 GMT ± 8 hours.

SL-23 RB
1 37758U 11037D   11220.18242083  .06819325  12014-4  19848-3 0   660
2 37758 051.3846 228.9204 0035889 161.8293 198.7062 16.40580137  3000

Period:       88.53 minutes
Inclination: 51.39°
Apogee:     248 km
Perigee:     156 km
Revolution Number:   309
Predicted  Location:   50.7°N, 103.9°E



__________________


L

Posts: 131433
Date:
Permalink  
 

Update
 The SL-23 rocket debris is predicted to re-enter the Earths atmosphere on the 8th August, 2011 @ 10:50 GMT ± 24 hours.

SL-23 RB
1 37758U 11037D   11219.51088042  .03246188  12067-4  18225-3 0   617
2 37758 051.4004 232.7279 0056788 157.4633 202.9474 16.33365183  2897

Period:       88.53 minutes
Inclination: 51.39°
Apogee:     248 km
Perigee:     156 km
Revolution Number:   304
Predicted  Location:   21.1°N, 271.2°E



__________________


L

Posts: 131433
Date:
Permalink  
 

Update
 The SL-23 rocket debris is predicted to re-enter the Earths atmosphere on the 8th August, 2011 @ 10:50 GMT ± 24 hours.

SL-23RBB.gif
Expand (27kb, 857 x 564)

SL-23 RB
1 37758U 11037D   11218.83700678  .03051998  11949-4  33881-3 0   590
2 37758 051.3941 236.5018 0064108 156.1686 204.2466 16.28848699  2784

Period:       88.80 minutes
Inclination: 51.40°
Apogee:     270 km
Perigee:     160 km
Revolution Number:   304
Predicted  Location:   21.1°N, 271.2°E



__________________


L

Posts: 131433
Date:
Permalink  
 

Update
 The SL-23 rocket debris is predicted to re-enter the Earths atmosphere on the 8th August, 2011 @ 12:38 GMT ± 24 hours.

SL-23 RB
1 37758U 11037D   11218.34588827  .02996243  11871-4  44776-3 0   573
2 37758 051.3944 239.2414 0071632 154.0938 207.0575 16.25836211  2702

Period:       88.85 minutes
Inclination: 51.40°
Apogee:     274 km
Perigee:     161 km
Revolution Number:   306
Predicted  Location:   40.6°S, 304.5°E



__________________


L

Posts: 131433
Date:
Permalink  
 

Update
 The SL-23 rocket debris is predicted to re-enter the Earths atmosphere on the 9th August, 2011 @ 03:08 GMT ± 48 hours.

SL-23 RB
1 37758U 11037D   11217.42251387  .01753513  11831-4  33310-3 0   522
2 37758 051.3968 244.3678 0083656 150.6203 210.0800 16.21593289  2552

Period:       88.85 minutes
Inclination: 51.40°
Apogee:     274 km
Perigee:     161 km
Revolution Number:   316
Predicted  Location:   10.9°S, 48.7°E



__________________


L

Posts: 131433
Date:
Permalink  
 

SL-23 rocket debris that was launched on the 18th July, 2011, from the Baikonur Cosmodrome for the Spektr-R mission is predicted to re-enter the Earths atmosphere on the 1st August, 2011 @ --:-- GMT ± -- hours.

SL-23 DEB
1 37758U 11037D   11212.16115759  .00894585  11576-4  30686-3 0   332
2 37758 051.4027 273.1888 0124961 130.6788 230.5172 16.08185131  1706

Period:       89.61 minutes
Inclination: 51.40°
Apogee:     341 km
Perigee:     170 km
Revolution Number:   -
Predicted  Location:   -



__________________
Page 1 of 1  sorted by
 
Quick Reply

Please log in to post quick replies.



Create your own FREE Forum
Report Abuse
Powered by ActiveBoard